Weather History for Newark, NJ

Change the Weather History Date:

Monday, April 9, 2012

  Actual Average Record
Temperature  
Mean Temperature 58 °F 51 °F  
Max Temperature 66 °F 60 °F 85 °F (2013)
Min Temperature 50 °F 42 °F 26 °F (1977)
Degree Days  
Heating Degree Days 7 15  
Month to date heating degree days 107 145  
Since 1 July heating degree days 3438 4489  
Cooling Degree Days 0 0  
Month to date cooling degree days 0 0  
Year to date cooling degree days 5 1  
Growing Degree Days 8 (Base 50)    
Moisture  
Dew Point 19 °F    
Average Humidity 28    
Maximum Humidity 41    
Minimum Humidity 15    
Precipitation  
Precipitation 0.00 in 0.15 in 2.39 in (1980)
Month to date precipitation 0.37 1.32  
Year to date precipitation 5.64 11.92  
Snow  
Snow 0.00 in 0.10 in 1.00 in (1982)
Month to date snowfall 0.0 0.5  
Since 1 July snowfall 8.8 28.1  
Snow Depth 0.00 in    
Sea Level Pressure  
Sea Level Pressure 29.68 in    
Wind  
Wind Speed 19 mph (West)    
Max Wind Speed 39 mph    
Max Gust Speed 49 mph    
Visibility 10 miles    
Events      
T = Trace of Precipitation, MM = Missing Value Source: NWS Daily Summary

Daily Weather History Graph

Daily Weather History Graph

Search for Another Location

Airport:

Trip Planner

Search our weather history database for the weather conditions in past years. The results will help you decide how hot, cold, wet, or windy it might be!

Date:

Astronomy

Apr. 09, 2012 Rise Set
Actual Time 6:26 AM EDT 7:30 PM EDT
Civil Twilight 5:58 AM EDT 7:58 PM EDT
Nautical Twilight 5:25 AM EDT 8:31 PM EDT
Astronomical Twilight 4:50 AM EDT 9:06 PM EDT
Moon 11:24 PM EDT (4/9) 8:10 AM EDT (4/9)
Length of Visible Light 13h 59m
Length of Day
13h 03m
Waning Gibbous, 88% of the Moon is Illuminated
Apr 9
Waning Gibbous
Apr 13
Last Quarter
Apr 21
New
Apr 29
First Quarter
May 5
Full

Hourly Weather History & Observations

Time (EDT) Temp. Dew Point Humidity Pressure Visibility Wind Dir Wind Speed Gust Speed Precip Events Conditions
12:51 AM 55.4 °F 24.8 °F 31% 29.75 in 10.0 mi NW 25.3 mph 34.5 mph N/A   Partly Cloudy
1:51 AM 53.1 °F 25.0 °F 34% 29.75 in 10.0 mi West 16.1 mph 21.9 mph N/A   Clear
2:51 AM 51.8 °F 28.4 °F 41% 29.74 in 10.0 mi West 11.5 mph - N/A   Clear
3:51 AM 51.1 °F 28.0 °F 41% 29.72 in 10.0 mi WSW 11.5 mph 19.6 mph N/A   Partly Cloudy
4:51 AM 51.1 °F 23.0 °F 33% 29.71 in 10.0 mi West 16.1 mph - N/A   Partly Cloudy
5:51 AM 50.0 °F 18.0 °F 28% 29.72 in 10.0 mi West 18.4 mph 24.2 mph N/A   Partly Cloudy
6:51 AM 50.0 °F 16.0 °F 26% 29.72 in 10.0 mi WSW 15.0 mph 20.7 mph N/A   Partly Cloudy
7:51 AM 52.0 °F 16.0 °F 24% 29.72 in 10.0 mi WSW 15.0 mph 24.2 mph N/A   Scattered Clouds
8:51 AM 55.0 °F 19.0 °F 24% 29.69 in 10.0 mi West 21.9 mph 36.8 mph N/A   Scattered Clouds
9:51 AM 57.0 °F 19.0 °F 23% 29.67 in 10.0 mi West 31.1 mph 40.3 mph N/A   Scattered Clouds
10:51 AM 59.0 °F 17.1 °F 20% 29.66 in 10.0 mi West 33.4 mph 41.4 mph N/A   Mostly Cloudy
11:51 AM 62.1 °F 18.0 °F 18% 29.65 in 10.0 mi West 24.2 mph 38.0 mph N/A   Mostly Cloudy
12:51 PM 63.0 °F 16.0 °F 16% 29.63 in 10.0 mi West 34.5 mph 44.9 mph N/A   Mostly Cloudy
1:51 PM 63.0 °F 17.1 °F 17% 29.63 in 10.0 mi West 20.7 mph 36.8 mph N/A   Mostly Cloudy
2:51 PM 63.0 °F 16.0 °F 16% 29.62 in 10.0 mi West 25.3 mph 36.8 mph N/A   Mostly Cloudy
3:51 PM 64.0 °F 16.0 °F 16% 29.62 in 10.0 mi WSW 24.2 mph 39.1 mph N/A   Mostly Cloudy
4:51 PM 64.0 °F 15.1 °F 15% 29.62 in 10.0 mi West 25.3 mph 34.5 mph N/A   Mostly Cloudy
5:51 PM 63.0 °F 15.1 °F 16% 29.63 in 10.0 mi West 20.7 mph 33.4 mph N/A   Mostly Cloudy
6:51 PM 62.6 °F 15.8 °F 16% 29.65 in 10.0 mi West 18.4 mph 26.5 mph N/A   Mostly Cloudy
7:51 PM 60.1 °F 17.1 °F 19% 29.67 in 10.0 mi West 17.3 mph 20.7 mph N/A   Scattered Clouds
8:51 PM 59.0 °F 17.1 °F 20% 29.69 in 10.0 mi West 10.4 mph - N/A   Scattered Clouds
9:51 PM 55.9 °F 19.0 °F 24% 29.70 in 10.0 mi SW 9.2 mph - N/A   Scattered Clouds
10:51 PM 55.9 °F 21.9 °F 27% 29.71 in 10.0 mi WSW 11.5 mph - N/A   Partly Cloudy
11:51 PM 54.0 °F 24.1 °F 31% 29.72 in 10.0 mi WSW 9.2 mph - N/A   Scattered Clouds